Regional Weather Roundup
Issued by NWS

Home | Current Version | Previous Version | Graphics & Text | Print | Product List | Glossary On
Versions: 1 2 3 4 5 6 7 8 9 10 11 12 13 14 15 16 17 18 19 20 21 22 23 24 25 26 27 28 29 30 31 32 33 34 35 36 37 38 39 40 41 42 43 44 45 46 47 48 49 50
000
ASUS43 KMPX 181910
RWRMN
WEATHER ROUNDUP FOR MINNESOTA
NATIONAL WEATHER SERVICE TWIN CITIES/CHANHASSEN MN
100 PM CST SUN FEB 18 2018


NOTE: "FAIR" INDICATES FEW OR NO CLOUDS BELOW 12,000 FEET WITH NO
SIGNIFICANT WEATHER AND/OR OBSTRUCTIONS TO VISIBILITY. N/A MEANS
CURRENT SKY AND/OR WEATHER CONDITIONS ARE NOT AVAILABLE.

MNZ060>063-068>070-182000-
   Twin Cities Metro

CITY           SKY/WX    TMP DP  RH WIND       PRES   REMARKS
TWIN CITIES    CLOUDY    39  29  67 S16G25    29.64F
ST PAUL        FAIR      38  29  70 S16       29.66F
CRYSTAL        PTSUNNY   37  27  67 S12       29.62S
BLAINE         CLOUDY    39  28  65 S20G25    29.63S
LAKEVILLE      FAIR      39  28  65 S16G29    29.63S
EDEN PRAIRIE   PTSUNNY   42  29  59 S17G24    29.61F
SOUTH ST PAUL  FAIR      40  28  64 S17G26    29.65S
LAKE ELMO      FAIR      39  30  70 S20G33    29.65F
$$
MNZ001>005-007-008-013>017-022>024-027-028-182000-
   Northwest Minnesota

CITY           SKY/WX    TMP DP  RH WIND       PRES   REMARKS
BEMIDJI        LGT SNOW  16  12  85 NE9       29.71F WCI   4
HALLOCK        PTSUNNY   14   9  79 N14       29.91F WCI  -1
WARROAD        LGT SNOW   9   3  78 NE12      29.89F WCI  -6
THIEF RVR FALL LGT SNOW  14   9  80 N18       29.81S VSB 1   WCI  -3
CROOKSTON      LGT SNOW  14  10  85 NE18      29.83R WCI  -3
FOSSTON        LGT SNOW  18  10  73 N13G18    29.74S WCI   4
DETROIT LAKES  PTSUNNY   21  18  86 NE12      29.65S HAZE    WCI   9
MOORHEAD       LGT RAIN  19  16  86 N21G26    29.70R WCI   3
PARK RAPIDS    LGT SNOW  19  13  77 NE13G21   29.64F WCI   6
MAHNOMEN       MOCLDY    18  13  80 NE17      29.68F WCI   3
$$
MNZ006-009>011-018-025>026-182000-
   North Central Minnesota

CITY           SKY/WX    TMP DP  RH WIND       PRES   REMARKS
BAUDETTE       LGT SNOW  10   5  80 NE12      29.84F WCI  -5
FLAG ISLAND    LGT SNOW   7   1  78 N12       29.91F WCI  -9
INTL FALLS     SNOW       9   5  84 NE9       29.84F VSB 1/2 WCI  -4
WASKISH        LGT SNOW  16  10  79 NE7       29.79S WCI   6
BIG FORK       SNOW      16  10  79 E6        29.76F VSB 1/2 WCI   7
LONGVILLE      LGT SNOW  18  14  86 E3        29.68F VSB 3/4
GRAND RAPIDS   SNOW      17  14  88 VRB7      29.71F VSB 1/2 WCI   8
CRANE LAKE     LGT SNOW  10   9  92 CALM      29.85F VSB 3/4
ORR            SNOW      16  10  79 E5        29.76F VSB 1/2 WCI   9
COOK           SNOW      16  10  79 E6        29.77F VSB 1/2 WCI   7
WALKER         LGT SNOW  16  12  85 NE9       29.68F VSB 1   WCI   5
$$
MNZ012-019>021-037-182000-
   Northeast Minnesota

CITY           SKY/WX    TMP DP  RH WIND       PRES   REMARKS
DULUTH         LGT SNOW  20  14  77 E15       29.70F VSB 3/4 WCI   6
ELY            SNOW      14  10  85 E7        29.79F VSB 1/2 WCI   4
HIBBING        SNOW      15  13  91 E10       29.73F VSB 1/4 WCI   2
EVELETH        SNOW     N/A N/A N/A E8        29.75F VSB 1/2
DULUTH HARBOR  FLURRIES  25  18  74 NE24      29.76F WCI   9
TWO HARBORS    SNOW      25  19  80 E12       29.75F VSB 1/2 WCI  14
GRAND MARAIS     N/A     17  13  84 NE15G25   29.92F WCI   2
G MARAIS ARPRT SNOW      10   3  72 NE12      29.82F VSB 1/4 WCI  -4
$$
MNZ029>031-032-039>041-046>048-054>057-064-182000-
   West Central Minnesota

CITY           SKY/WX    TMP DP  RH WIND       PRES   REMARKS
FERGUS FALLS   FAIR      25  18  74 NE10      29.59S WCI  15
WHEATON        CLOUDY    34  21  60 N6        29.57F WCI  29
MORRIS         CLOUDY    37  23  56 E5        29.53F
ALEXANDRIA     CLOUDY    32  22  66 E8        29.56F WCI  25
ELBOW LAKE     FAIR      29  20  68 NE10      29.57S WCI  20
WADENA         PTSUNNY   21  12  68 NE10      29.60F WCI  10
GLENWOOD       FAIR      37  25  60 S7        29.55F
APPLETON       CLOUDY    45  25  45 SW8       29.52F
BENSON         CLOUDY    43  25  49 SW6       29.55F
ORTONVILLE     CLOUDY    37  23  56 N5        29.52F
MADISON        CLOUDY    46  27  46 W9        29.52S
WILLMAR        FAIR      45  27  49 SW12G20   29.56F
$$
MNZ033>034-036-042>043-049>051-058-059-182000-
   Central Minnesota

CITY           SKY/WX    TMP DP  RH WIND       PRES   REMARKS
ST CLOUD       FAIR      36  25  64 S16       29.59F
SAUK CENTRE    FAIR      36  24  62 S8        29.56F
PAYNESVILLE    FAIR      39  28  63 S12G18    29.56F
AITKIN         CLOUDY    23  12  63 E5        29.64F WCI  17
PINE RIVER     LGT SNOW  18  12  79 E8        29.70F WCI   7
BRAINERD       PTSUNNY   25  11  55 E7        29.64F WCI  17
STAPLES        FAIR      25  10  54 E7        29.61F WCI  17
LONG PRAIRIE   FAIR      30  19  64 NE6       29.58F WCI  24
LITTLE FALLS   PTSUNNY   32  18  55 E5        29.60F WCI  27
LITCHFIELD     FAIR      43  28  56 S6        29.58F
BUFFALO        FAIR      38  27  64 S8G16     29.61F
MAPLE LAKE     FAIR      39  29  67 S9        29.60F
HUTCHINSON     FAIR      41  30  65 S16G24    29.59F
$$
MNZ037-044-045-052-053-182000-
   East Central Minnesota

CITY           SKY/WX    TMP DP  RH WIND       PRES   REMARKS
PRINCETON      FAIR      37  25  60 SE7       29.61F
MORA           FAIR      32  21  64 SE5       29.66F WCI  27
CAMBRIDGE        N/A     37  25  60 S8        29.63F
RUSH CITY      CLOUDY    33  24  69 S9        29.65F WCI  25
MOOSE LAKE     CLOUDY    27  10  50 E3        29.67F
HINCKLEY       MOCLDY    32  21  64 S7        29.66F WCI  26
CLOQUET        FLURRIES  19  10  68 E8        29.69F WCI   9
MCGREGOR       CLOUDY    23  12  63 NE7       29.66F WCI  15
$$
MNZ071>073-080-081-089-090-097-098-182000-
   Southwest Minnesota

CITY           SKY/WX    TMP DP  RH WIND       PRES   REMARKS
MONTEVIDEO     CLOUDY    46  28  49 W7        29.52F
GRANITE FALLS  CLOUDY    47  30  50 SW18G24   29.54F
CANBY          CLOUDY    46  28  51 SW14G22   29.53S
MARSHALL       CLOUDY    45  27  49 SW22G31   29.51S
REDWOOD FALLS  CLOUDY    43  28  55 SW23G40   29.56F
OLIVIA         CLOUDY    43  28  56 SW25G37   29.55F
PIPESTONE      CLOUDY    43  28  56 SW21G33   29.51F
WINDOM         CLOUDY    43  21  42 S18G25    29.57F
WORTHINGTON    CLOUDY    40  29  64 S26G37    29.55F
JACKSON        CLOUDY    41  30  65 S24       29.59F
TRACY          CLOUDY    43  30  61 SW26G36   29.51S
SLAYTON        CLOUDY    40  30  68 S28G36    29.52F
$$
MNZ065>067-074>077-082>085-091>093-182000-
   South Central Minnesota

CITY           SKY/WX    TMP DP  RH WIND       PRES   REMARKS
MANKATO        FAIR      39  31  72 S26G36    29.60F
NEW ULM        CLOUDY    39  28  65 S14G23    29.59S
ST JAMES       CLOUDY    39  30  70 S26G35    29.59F
FAIRMONT       MOSUNNY   40  32  73 S21       29.63R
GLENCOE        FAIR      40  32  71 S16G24    29.59F
FARIBAULT      FAIR      39  30  70 S15G24    29.65S
OWATONNA       FAIR      37  30  75 S24G35    29.64F
WASECA         FAIR      39  30  70 S23G30    29.66R
ALBERT LEA     FAIR      41  27  56 S31G40    29.63F
$$
MNZ078>079-086>088-094>096-182000-
   Southeast Minnesota

CITY           SKY/WX    TMP DP  RH WIND       PRES   REMARKS
ROCHESTER      FAIR      36  28  73 S29G47    29.70F
RED WING       FAIR      43  21  42 S21G32    29.68F
STANTON        PTSUNNY   41  30  63 S25G35    29.62F
DODGE CENTER   FAIR      37  28  70 S38G48    29.65F
WINONA         FAIR      39  28  65 S14       29.79F
AUSTIN         FAIR      37  28  70 S22G31    29.68F
PRESTON        FAIR      36  29  75 S26G36    29.76F
$$
ABBREVIATIONS USED IN REMARKS
   TC - TEMPERATURES IN CELSIUS
  WCI - WIND CHILL INDEX
   HX - HEAT INDEX
  VSB - VISIBILITY
$$



USA.gov is the U.S. government's official web portal to all federal, state and local government web resources and services.